Weather History for KCVN - August, 2014

Change the Weather History Date:

Wednesday, August 20, 2014

  Actual Average Record
Temperature  
Mean Temperature 78 °F -  
Max Temperature 93 °F 88 °F 105 °F (1930)
Min Temperature 62 °F 62 °F 49 °F (1950)
Cooling Degree Days 12    
Growing Degree Days 28 (Base 50)    
Moisture  
Dew Point 60 °F    
Average Humidity 58    
Maximum Humidity 88    
Minimum Humidity 28    
Precipitation  
Precipitation 0.01 in - - ()
Sea Level Pressure  
Sea Level Pressure 29.99 in    
Wind  
Wind Speed 11 mph (South)    
Max Wind Speed 23 mph    
Max Gust Speed 30 mph    
Visibility 10 miles    
Events Thunderstorm    
Averages and records for this station are not official NWS values.
T = Trace of Precipitation, MM = Missing Value Source: NWS Daily Summary

Daily Weather History Graph

Daily Weather History Graph

Search for Another Location

Airport or City:

Trip Planner

Search our weather history database for the weather conditions in past years. The results will help you decide how hot, cold, wet, or windy it might be!

Date:

Astronomy

Aug. 20, 2014 Rise Set
Actual Time 6:16 AM MDT 7:33 PM MDT
Civil Twilight 5:50 AM MDT 8:00 PM MDT
Nautical Twilight 5:19 AM MDT 8:31 PM MDT
Astronomical Twilight 4:46 AM MDT 9:03 PM MDT
Moon 2:03 AM MDT (8/20) 4:16 PM MDT (8/20)
Length of Visible Light 14h 09m
Length of Day
13h 16m
Waning Crescent, 20% of the Moon is Illuminated
Aug 20
Waning Crescent
Aug 25
New
Sep 2
First Quarter
Sep 8
Full
Sep 15
Last Quarter

Hourly Weather History & Observations

Time (MDT) Temp. Heat Index Dew Point Humidity Pressure Visibility Wind Dir Wind Speed Gust Speed Precip Events Conditions
12:15 AM 71.6 °F - 59.0 °F 64% 29.98 in 10.0 mi SSE 12.7 mph - N/A   Unknown
12:35 AM 73.4 °F - 59.0 °F 61% 29.98 in 10.0 mi South 12.7 mph - N/A   Unknown
12:55 AM 73.4 °F - 59.0 °F 61% 29.98 in 10.0 mi South 12.7 mph - N/A   Unknown
1:15 AM 71.6 °F - 59.0 °F 64% 29.98 in 10.0 mi South 11.5 mph - N/A   Unknown
1:35 AM 71.6 °F - 59.0 °F 64% 29.98 in 10.0 mi South 9.2 mph - N/A   Unknown
1:55 AM 69.8 °F - 59.0 °F 68% 29.98 in 10.0 mi South 9.2 mph - N/A   Unknown
2:15 AM 69.8 °F - 59.0 °F 68% 29.98 in 10.0 mi South 9.2 mph - N/A   Unknown
2:35 AM 69.8 °F - 59.0 °F 68% 29.98 in 10.0 mi South 6.9 mph - N/A   Unknown
2:55 AM 68.0 °F - 59.0 °F 73% 29.97 in 10.0 mi South 9.2 mph - N/A   Unknown
3:15 AM 68.0 °F - 59.0 °F 73% 29.97 in 10.0 mi South 8.1 mph - N/A   Unknown
3:35 AM 68.0 °F - 59.0 °F 73% 29.97 in 10.0 mi South 9.2 mph - N/A   Unknown
3:55 AM 68.0 °F - 59.0 °F 73% 29.97 in 10.0 mi South 9.2 mph - N/A   Unknown
4:15 AM 66.2 °F - 59.0 °F 78% 29.97 in 10.0 mi SSW 8.1 mph - N/A   Unknown
4:35 AM 66.2 °F - 59.0 °F 78% 29.97 in 10.0 mi South 8.1 mph - N/A   Unknown
4:55 AM 66.2 °F - 59.0 °F 78% 29.97 in 10.0 mi South 6.9 mph - N/A   Unknown
5:15 AM 64.4 °F - 59.0 °F 83% 29.98 in 10.0 mi South 8.1 mph - N/A   Unknown
5:35 AM 64.4 °F - 57.2 °F 77% 29.98 in 10.0 mi South 6.9 mph - N/A   Unknown
5:55 AM 64.4 °F - 59.0 °F 83% 29.99 in 10.0 mi South 9.2 mph - N/A   Unknown
6:15 AM 64.4 °F - 59.0 °F 83% 29.99 in 10.0 mi South 8.1 mph - N/A   Unknown
6:35 AM 62.6 °F - 59.0 °F 88% 29.99 in 10.0 mi South 6.9 mph - N/A   Unknown
6:55 AM 64.4 °F - 60.8 °F 88% 30.00 in 10.0 mi South 6.9 mph - N/A   Unknown
7:15 AM 66.2 °F - 60.8 °F 83% 30.00 in 10.0 mi South 8.1 mph - N/A   Unknown
7:35 AM 69.8 °F - 60.8 °F 73% 30.01 in 10.0 mi South 10.4 mph - N/A   Unknown
7:55 AM 71.6 °F - 62.6 °F 73% 30.01 in 10.0 mi SSW 11.5 mph - N/A   Unknown
8:15 AM 71.6 °F - 62.6 °F 73% 30.01 in 10.0 mi South 13.8 mph - N/A   Unknown
8:35 AM 73.4 °F - 62.6 °F 69% 30.01 in 10.0 mi SSW 15.0 mph - N/A   Unknown
8:55 AM 75.2 °F - 62.6 °F 65% 30.01 in 10.0 mi SSW 12.7 mph - N/A   Unknown
9:15 AM 77.0 °F - 60.8 °F 57% 30.01 in 10.0 mi SW 13.8 mph - N/A   Unknown
9:35 AM 80.6 °F 81.5 °F 60.8 °F 51% 30.01 in 10.0 mi SSW 12.7 mph 17.3 mph N/A   Unknown
9:55 AM 80.6 °F 81.5 °F 60.8 °F 51% 30.01 in 10.0 mi SSW 10.4 mph - N/A   Unknown
10:15 AM 82.4 °F 82.9 °F 60.8 °F 48% 30.01 in 10.0 mi SW 13.8 mph - N/A   Unknown
10:35 AM 84.2 °F 84.4 °F 60.8 °F 45% 30.01 in 10.0 mi SSW 10.4 mph - N/A   Unknown
10:55 AM 86.0 °F 85.4 °F 59.0 °F 40% 30.01 in 10.0 mi SSW 10.4 mph - N/A   Unknown
11:15 AM 87.8 °F 86.5 °F 57.2 °F 35% 30.00 in 10.0 mi SSW 8.1 mph - N/A   Unknown
11:35 AM 89.6 °F 88.1 °F 57.2 °F 33% 30.00 in 10.0 mi WSW 13.8 mph - N/A   Unknown
11:55 AM 89.6 °F 87.7 °F 55.4 °F 31% 29.99 in 10.0 mi WSW 13.8 mph 18.4 mph N/A   Unknown
12:15 PM 89.6 °F 87.7 °F 55.4 °F 31% 29.99 in 10.0 mi SW 13.8 mph 19.6 mph N/A   Unknown
12:35 PM 89.6 °F 87.7 °F 55.4 °F 31% 29.99 in 10.0 mi SW 9.2 mph 18.4 mph N/A   Unknown
12:55 PM 91.4 °F 89.4 °F 55.4 °F 29% 29.99 in 10.0 mi SSW 11.5 mph 23.0 mph N/A   Unknown
1:15 PM 91.4 °F 89.1 °F 53.6 °F 28% 29.98 in 10.0 mi SSW 17.3 mph 20.7 mph N/A   Unknown
1:35 PM 91.4 °F 89.1 °F 53.6 °F 28% 29.98 in 10.0 mi SW 13.8 mph 21.9 mph N/A   Unknown
1:55 PM 91.4 °F 89.1 °F 53.6 °F 28% 29.97 in 10.0 mi South 23.0 mph 29.9 mph N/A   Unknown
2:15 PM 93.2 °F 91.3 °F 55.4 °F 28% 29.97 in 10.0 mi SSE 15.0 mph - N/A   Unknown
2:35 PM 91.4 °F 89.4 °F 55.4 °F 29% 29.97 in 10.0 mi SSE 13.8 mph 19.6 mph N/A   Unknown
2:55 PM 87.8 °F 87.1 °F 59.0 °F 38% 29.97 in 10.0 mi South 18.4 mph 23.0 mph N/A   Unknown
3:15 PM 78.8 °F - 60.8 °F 54% 29.97 in 10.0 mi SSE 6.9 mph 28.8 mph 0.01 in   Unknown
3:35 PM 77.0 °F - 62.6 °F 61% 29.97 in 10.0 mi WSW 11.5 mph - 0.01 in   Unknown
3:55 PM 73.4 °F - 64.4 °F 73% 29.99 in 10.0 mi South 10.4 mph - 0.01 in Thunderstorm Unknown
4:15 PM 80.6 °F 81.8 °F 62.6 °F 54% 29.98 in 10.0 mi South 8.1 mph - N/A Thunderstorm Unknown
4:35 PM 84.2 °F 85.0 °F 62.6 °F 48% 29.97 in 10.0 mi SSE 15.0 mph - N/A   Unknown
4:55 PM 80.6 °F 81.5 °F 60.8 °F 51% 29.96 in 10.0 mi SSE 13.8 mph - N/A   Unknown
5:15 PM 80.6 °F 81.1 °F 59.0 °F 48% 29.95 in 10.0 mi SSE 5.8 mph - N/A   Unknown
5:35 PM 82.4 °F 82.0 °F 57.2 °F 42% 29.96 in 10.0 mi SSE 4.6 mph - N/A   Unknown
5:55 PM 84.2 °F 83.8 °F 59.0 °F 42% 29.96 in 10.0 mi SSE 6.9 mph - N/A   Unknown
6:15 PM 84.2 °F 84.4 °F 60.8 °F 45% 29.96 in 10.0 mi SSE 6.9 mph - N/A   Unknown
6:35 PM 82.4 °F 82.9 °F 60.8 °F 48% 29.96 in 10.0 mi SE 8.1 mph - N/A   Unknown
6:55 PM 80.6 °F 81.5 °F 60.8 °F 51% 29.97 in 10.0 mi SE 9.2 mph - N/A   Unknown
7:15 PM 80.6 °F 81.5 °F 60.8 °F 51% 29.97 in 10.0 mi SE 6.9 mph - N/A   Unknown
7:35 PM 78.8 °F - 62.6 °F 57% 29.98 in 10.0 mi South 3.5 mph - N/A   Unknown
7:55 PM 77.0 °F - 62.6 °F 61% 29.98 in 10.0 mi South 4.6 mph - N/A   Unknown
8:15 PM 75.2 °F - 62.6 °F 65% 29.98 in 10.0 mi Calm Calm - N/A   Unknown
8:35 PM 73.4 °F - 62.6 °F 69% 29.99 in 10.0 mi SE 3.5 mph - N/A   Unknown
8:55 PM 73.4 °F - 62.6 °F 69% 29.99 in 10.0 mi East 4.6 mph - N/A   Unknown
9:15 PM 73.4 °F - 62.6 °F 69% 30.01 in 10.0 mi ESE 9.2 mph - N/A   Unknown
9:35 PM 73.4 °F - 62.6 °F 69% 30.02 in 10.0 mi South 8.1 mph - N/A   Unknown
9:55 PM 73.4 °F - 59.0 °F 61% 30.02 in 10.0 mi SSE 13.8 mph - N/A   Unknown
10:15 PM 75.2 °F - 60.8 °F 61% 30.02 in 10.0 mi SSE 13.8 mph - N/A   Unknown
10:35 PM 75.2 °F - 60.8 °F 61% 30.03 in 10.0 mi South 16.1 mph - N/A   Unknown
10:55 PM 75.2 °F - 60.8 °F 61% 30.04 in 10.0 mi South 20.7 mph 26.5 mph N/A   Unknown
11:15 PM 75.2 °F - 60.8 °F 61% 30.04 in 10.0 mi South 17.3 mph 21.9 mph N/A   Unknown
11:35 PM 75.2 °F - 60.8 °F 61% 30.04 in 10.0 mi South 15.0 mph 21.9 mph N/A   Unknown
11:55 PM 73.4 °F - 60.8 °F 65% 30.04 in 10.0 mi South 11.5 mph - N/A   Unknown